Starlink 35042

operational
NORAD ID: 65481 Int'l Des: 2025-195 Owner: SPXS Country: US Constellation: starlink
LEOCIRCULAR

About Starlink 35042

Description loading...

Live Position

Loading 3D Globe...

Upcoming Passes

Altitude History

Altitude vs Time

uPlot chart will show altitude changes over time

Two-Line Element Set

1 65481U 25195Z 25293.86462508 .00073620 00000-0 18301-2 0 9999
2 65481 53.1603 189.2320 0000625 62.6932 297.4136 15.39664603 8542
Epoch: Oct 20, 2025 • Age: 16 hours

Current Status

Altitude 453.0 km
Velocity 7.65 km/s
Sub-Earth Point 53.30°N, 56.65°E
Launch Date Sep 3, 2025
Age 0.1 years
Type internet

Technical Details

Classification Payload
Mass 575.00 kg
Dry Mass 530.00 kg
Total Mass 575.00 kg
Length 0.30 m
Diameter 4.10 m
Span 29.00 m
Shape Box + pan
Manufacturer SPXS
Bus Type Starlink V2MO
Phase Status In Orbit
Owner/State SPXS/US

Large Constellations

Loading constellations...